User: anonymous   Login
Location: Brno
(49.2000°N, 16.6330°E)
Time: 21:16:45
(UTC+02:00)
Language:

RESURS DK-1 - Orbit

View from above orbital plane
View from above orbital plane
View from above satellite
View from above satellite

Ground track
Ground track

The orbit data is extracted from the following two-line orbital elements,

1 29228U 06021A   18171.45926531  .00000029  00000-0  95586-5 0  9994
2 29228  69.9356 240.9813 0003432 178.6568 181.4603 15.02329847663406
Epoch (UTC): 20 June 2018 11:01:20
Eccentricity: 0.0003432
inclination: 69.9356°
perigee height: 557 km
apogee height: 562 km
right ascension of ascending node: 240.9813°
argument of perigee: 178.6568°
revolutions per day: 15.02329847
mean anomaly at epoch: 181.4603°
orbit number at epoch: 66340

The dashed part of the orbit path shows where the satellite is in the earth's shadow,  

DLR